YAOGAN 20C

Satellite information

Favourite Embed

Satellite Type and Status

PAYLOADIN ORBIT

Key statistics

Satellite YAOGAN 20C at a glance.

Uptime

4048

Days in orbit

Revolutions

≈ 13.5

Per day

Orbit

LEO

Low Earth Orbit

Inclination

63.4

Latest

Satellite identification and parameters

Extended collection of information and parameters for YAOGAN 20C.

Object identification

Identified? True

Debris? False

Object name: YAOGAN 20C

International designator: 2014-047C

Object number (NORAD): 40111

Object ID (CCSDS): 40111

Country: PEOPLES REPUBLIC OF CHINA (PRC)

Current information (Y/N): Y

RCS size: LARGE

Orbital parameters

Period: 107.031 minutes

Inclination: 63.3821 deg

SMA: 7467.337 km

Apoapsis: 1361.941 km

Periapsis: 816.462 km

RAAN: 27.1399 deg

Eccentricy: 0.03652433

Argument of periapsis: 13.6047 deg

Mean anomaly: 347.4509 deg

Mean motion: 13.4540852 rev/day

Mean motion (dot): -0.00000085 rev/day2

B* drag term: 0.00000605789 1/REarth

Two-line elements (TLE)

Creation date: Sept. 8, 2025, 3:16 a.m.

Reference frame: TEME

Reference center: EARTH

Epoch: Sept. 7, 2025, 11:46 p.m. UTC

TLE line 0: 0 YAOGAN 20C

TLE line 1: 1 40111U 14047C 25250.99053801 -.00000085 00000-0 60579-5 0 9998

TLE line 2: 2 40111 63.3821 27.1399 0365243 13.6047 347.4509 13.45408520544329

Live tracking on map

Real-time ground track for satellite YAOGAN 20C.

In-orbit conjunctions

There are no conjunctions computed for YAOGAN 20C, at the moment. Check back to stay up to date, as we update our databases every day.

Go to all conjunctions

Associated space launch

YAOGAN 20C was lifted into orbit during the mission ‘Long March 4C | Yaogan 20A, Yaogan 20B, Yaogan 20C’, on board a Long March 4C space rocket.

The launch took place on Aug. 9, 2014, 5:45 a.m. from Launch Area 4 (SLS-2 / 603).

For more information about the launch, click the button.

Launch to space Long March 4C | Yaogan 20A, Yaogan 20B, Yaogan 20C
Long March 4C | Yaogan 20A, Yaogan 20B, Yaogan 20C

Agency: N/A

Status: Launch Successful

Launch date: Aug. 9, 2014, 5:45 a.m. UTC

Rocket: Long March 4C

Launch pad: Launch Area 4 (SLS-2 / 603)

Location: Jiuquan Satellite Launch Center, People's Republic of China

...

Latest news about this satellite

There are no fresh news available about this satellite. Check back as we update our databases every day.


Newsletter sign-up

Weekly statistics, charts and insights to help you stay on top of the space industry.